Year,Month,Day,Hour,Minute,Value (Times are PST for temperature in C)
2020,04,13,00,00,10.10
2020,04,13,00,01,10.00
2020,04,13,00,02,10.00
2020,04,13,00,03,10.00
2020,04,13,00,04,10.00
2020,04,13,00,05,9.90
2020,04,13,00,06,9.90
2020,04,13,00,07,9.90
2020,04,13,00,08,9.90
2020,04,13,00,09,9.90
2020,04,13,00,10,9.80
2020,04,13,00,11,9.80
2020,04,13,00,12,9.80
2020,04,13,00,13,9.80
2020,04,13,00,14,9.80
2020,04,13,00,15,9.70
2020,04,13,00,16,9.70
2020,04,13,00,17,9.70
2020,04,13,00,18,9.70
2020,04,13,00,19,9.70
2020,04,13,00,20,9.70
2020,04,13,00,21,9.70
2020,04,13,00,22,9.70
2020,04,13,00,23,9.70
2020,04,13,00,24,9.70
2020,04,13,00,25,9.70
2020,04,13,00,26,9.70
2020,04,13,00,27,9.70
2020,04,13,00,28,9.70
2020,04,13,00,29,9.60
2020,04,13,00,30,9.60
2020,04,13,00,31,9.60
2020,04,13,00,32,9.70
2020,04,13,00,33,9.60
2020,04,13,00,34,9.60
2020,04,13,00,35,9.60
2020,04,13,00,36,9.60
2020,04,13,00,37,9.60
2020,04,13,00,38,9.60
2020,04,13,00,39,9.50
2020,04,13,00,40,9.50
2020,04,13,00,41,9.50
2020,04,13,00,42,9.50
2020,04,13,00,43,9.40
2020,04,13,00,44,9.40
2020,04,13,00,45,9.30
2020,04,13,00,46,9.30
2020,04,13,00,47,9.20
2020,04,13,00,48,9.10
2020,04,13,00,49,9.00
2020,04,13,00,50,8.90
2020,04,13,00,51,8.80
2020,04,13,00,52,8.70
2020,04,13,00,53,8.50
2020,04,13,00,54,8.40
2020,04,13,00,55,8.30
2020,04,13,00,56,8.20
2020,04,13,00,57,8.20
2020,04,13,00,58,8.10
2020,04,13,00,59,8.00
2020,04,13,01,00,8.00
2020,04,13,01,01,7.90
2020,04,13,01,02,7.90
2020,04,13,01,03,7.90
2020,04,13,01,04,8.00
2020,04,13,01,05,8.00
2020,04,13,01,06,8.10
2020,04,13,01,07,8.10
2020,04,13,01,08,8.10
2020,04,13,01,09,8.20
2020,04,13,01,10,8.20
2020,04,13,01,11,8.30
2020,04,13,01,12,8.40
2020,04,13,01,13,8.40
2020,04,13,01,14,8.50
2020,04,13,01,15,8.60
2020,04,13,01,16,8.60
2020,04,13,01,17,8.60
2020,04,13,01,18,8.60
2020,04,13,01,19,8.60
2020,04,13,01,20,8.60
2020,04,13,01,21,8.70
2020,04,13,01,22,8.70
2020,04,13,01,23,8.70
2020,04,13,01,24,8.70
2020,04,13,01,25,8.60
2020,04,13,01,26,8.60
2020,04,13,01,27,8.50
2020,04,13,01,28,8.50
2020,04,13,01,29,8.40
2020,04,13,01,30,8.40
2020,04,13,01,31,8.30
2020,04,13,01,32,8.30
2020,04,13,01,33,8.20
2020,04,13,01,34,8.20
2020,04,13,01,35,8.20
2020,04,13,01,36,8.20
2020,04,13,01,37,8.20
2020,04,13,01,38,8.20
2020,04,13,01,39,8.20
2020,04,13,01,40,8.20
2020,04,13,01,41,8.20
2020,04,13,01,42,8.30
2020,04,13,01,43,8.30
2020,04,13,01,44,8.30
2020,04,13,01,45,8.30
2020,04,13,01,46,8.30
2020,04,13,01,47,8.30
2020,04,13,01,48,8.30
2020,04,13,01,49,8.30
2020,04,13,01,50,8.30
2020,04,13,01,51,8.30
2020,04,13,01,52,8.30
2020,04,13,01,53,8.30
2020,04,13,01,54,8.30
2020,04,13,01,55,8.30
2020,04,13,01,56,8.40
2020,04,13,01,57,8.40
2020,04,13,01,58,8.50
2020,04,13,01,59,8.50
2020,04,13,02,00,8.60
2020,04,13,02,01,8.70
2020,04,13,02,02,8.80
2020,04,13,02,03,8.80
2020,04,13,02,04,8.80
2020,04,13,02,05,8.90
2020,04,13,02,06,8.90
2020,04,13,02,07,8.90
2020,04,13,02,08,8.80
2020,04,13,02,09,8.80
2020,04,13,02,10,8.80
2020,04,13,02,11,8.70
2020,04,13,02,12,8.70
2020,04,13,02,13,8.60
2020,04,13,02,14,8.60
2020,04,13,02,15,8.50
2020,04,13,02,16,8.50
2020,04,13,02,17,8.50
2020,04,13,02,18,8.50
2020,04,13,02,19,8.50
2020,04,13,02,20,8.40
2020,04,13,02,21,8.40
2020,04,13,02,22,8.40
2020,04,13,02,23,8.40
2020,04,13,02,24,8.40
2020,04,13,02,25,8.40
2020,04,13,02,26,8.40
2020,04,13,02,27,8.40
2020,04,13,02,28,8.30
2020,04,13,02,29,8.30
2020,04,13,02,30,8.30
2020,04,13,02,31,8.20
2020,04,13,02,32,8.20
2020,04,13,02,33,8.10
2020,04,13,02,34,8.10
2020,04,13,02,35,8.10
2020,04,13,02,36,8.10
2020,04,13,02,37,8.10
2020,04,13,02,38,8.00
2020,04,13,02,39,8.10
2020,04,13,02,40,8.10
2020,04,13,02,41,8.10
2020,04,13,02,42,8.10
2020,04,13,02,43,8.10
2020,04,13,02,44,8.10
2020,04,13,02,45,8.10
2020,04,13,02,46,8.10
2020,04,13,02,47,8.10
2020,04,13,02,48,8.10
2020,04,13,02,49,8.10
2020,04,13,02,50,8.10
2020,04,13,02,51,8.10
2020,04,13,02,52,8.00
2020,04,13,02,53,8.00
2020,04,13,02,54,8.00
2020,04,13,02,55,7.90
2020,04,13,02,56,7.90
2020,04,13,02,57,7.90
2020,04,13,02,58,7.90
2020,04,13,02,59,7.90
2020,04,13,03,00,7.80
2020,04,13,03,01,7.80
2020,04,13,03,02,7.80
2020,04,13,03,03,7.80
2020,04,13,03,04,7.70
2020,04,13,03,05,7.70
2020,04,13,03,06,7.60
2020,04,13,03,07,7.60
2020,04,13,03,08,7.60
2020,04,13,03,09,7.60
2020,04,13,03,10,7.60
2020,04,13,03,11,7.60
2020,04,13,03,12,7.60
2020,04,13,03,13,7.60
2020,04,13,03,14,7.60
2020,04,13,03,15,7.60
2020,04,13,03,16,7.60
2020,04,13,03,17,7.60
2020,04,13,03,18,7.60
2020,04,13,03,19,7.60
2020,04,13,03,20,7.60
2020,04,13,03,21,7.60
2020,04,13,03,22,7.70
2020,04,13,03,23,7.70
2020,04,13,03,24,7.80
2020,04,13,03,25,7.80
2020,04,13,03,26,7.90
2020,04,13,03,27,7.90
2020,04,13,03,28,7.90
2020,04,13,03,29,8.00
2020,04,13,03,30,8.10
2020,04,13,03,31,8.10
2020,04,13,03,32,8.10
2020,04,13,03,33,8.10
2020,04,13,03,34,8.10
2020,04,13,03,35,8.10
2020,04,13,03,36,8.10
2020,04,13,03,37,8.10
2020,04,13,03,38,8.10
2020,04,13,03,39,8.10
2020,04,13,03,40,8.00
2020,04,13,03,41,8.00
2020,04,13,03,42,7.90
2020,04,13,03,43,7.90
2020,04,13,03,44,7.90
2020,04,13,03,45,7.80
2020,04,13,03,46,7.70
2020,04,13,03,47,7.70
2020,04,13,03,48,7.60
2020,04,13,03,49,7.50
2020,04,13,03,50,7.40
2020,04,13,03,51,7.40
2020,04,13,03,52,7.30
2020,04,13,03,53,7.30
2020,04,13,03,54,7.20
2020,04,13,03,55,7.20
2020,04,13,03,56,7.20
2020,04,13,03,57,7.20
2020,04,13,03,58,7.10
2020,04,13,03,59,7.10
2020,04,13,04,00,7.10
2020,04,13,04,01,7.10
2020,04,13,04,02,7.10
2020,04,13,04,03,7.10
2020,04,13,04,04,7.10
2020,04,13,04,05,7.10
2020,04,13,04,06,7.20
2020,04,13,04,07,7.20
2020,04,13,04,08,7.20
2020,04,13,04,09,7.20
2020,04,13,04,10,7.20
2020,04,13,04,11,7.20
2020,04,13,04,12,7.20
2020,04,13,04,13,7.20
2020,04,13,04,14,7.30
2020,04,13,04,15,7.30
2020,04,13,04,16,7.20
2020,04,13,04,17,7.30
2020,04,13,04,18,7.30
2020,04,13,04,19,7.30
2020,04,13,04,20,7.30
2020,04,13,04,21,7.30
2020,04,13,04,22,7.30
2020,04,13,04,23,7.40
2020,04,13,04,24,7.40
2020,04,13,04,25,7.50
2020,04,13,04,26,7.60
2020,04,13,04,27,7.60
2020,04,13,04,28,7.60
2020,04,13,04,29,7.70
2020,04,13,04,30,7.70
2020,04,13,04,31,7.60
2020,04,13,04,32,7.60
2020,04,13,04,33,7.60
2020,04,13,04,34,7.50
2020,04,13,04,35,7.60
2020,04,13,04,36,7.60
2020,04,13,04,37,7.60
2020,04,13,04,38,7.60
2020,04,13,04,39,7.60
2020,04,13,04,40,7.50
2020,04,13,04,41,7.40
2020,04,13,04,42,7.30
2020,04,13,04,43,7.30
2020,04,13,04,44,7.20
2020,04,13,04,45,7.20
2020,04,13,04,46,7.20
2020,04,13,04,47,7.10
2020,04,13,04,48,7.10
2020,04,13,04,49,7.10
2020,04,13,04,50,7.10
2020,04,13,04,51,7.10
2020,04,13,04,52,7.20
2020,04,13,04,53,7.20
2020,04,13,04,54,7.20
2020,04,13,04,55,7.20
2020,04,13,04,56,7.10
2020,04,13,04,57,7.10
2020,04,13,04,58,7.10
2020,04,13,04,59,7.00
2020,04,13,05,00,6.90
2020,04,13,05,01,6.90
2020,04,13,05,02,6.80
2020,04,13,05,03,6.80
2020,04,13,05,04,6.70
2020,04,13,05,05,6.60
2020,04,13,05,06,6.50
2020,04,13,05,07,6.40
2020,04,13,05,08,6.40
2020,04,13,05,09,6.30
2020,04,13,05,10,6.20
2020,04,13,05,11,6.10
2020,04,13,05,12,6.10
2020,04,13,05,13,6.00
2020,04,13,05,14,5.90
2020,04,13,05,15,5.80
2020,04,13,05,16,5.80
2020,04,13,05,17,5.70
2020,04,13,05,18,5.70
2020,04,13,05,19,5.70
2020,04,13,05,20,5.70
2020,04,13,05,21,5.70
2020,04,13,05,22,5.70
2020,04,13,05,23,5.70
2020,04,13,05,24,5.70
2020,04,13,05,25,5.60
2020,04,13,05,26,5.60
2020,04,13,05,27,5.50
2020,04,13,05,28,5.40
2020,04,13,05,29,5.40
2020,04,13,05,30,5.30
2020,04,13,05,31,5.30
2020,04,13,05,32,5.30
2020,04,13,05,33,5.30
2020,04,13,05,34,5.40
2020,04,13,05,35,5.40
2020,04,13,05,36,5.50
2020,04,13,05,37,5.50
2020,04,13,05,38,5.60
2020,04,13,05,39,5.60
2020,04,13,05,40,5.60
2020,04,13,05,41,5.60
2020,04,13,05,42,5.60
2020,04,13,05,43,5.60
2020,04,13,05,44,5.50
2020,04,13,05,45,5.50
2020,04,13,05,46,5.50
2020,04,13,05,47,5.50
2020,04,13,05,48,5.40
2020,04,13,05,49,5.40
2020,04,13,05,50,5.40
2020,04,13,05,51,5.30
2020,04,13,05,52,5.30
2020,04,13,05,53,5.20
2020,04,13,05,54,5.20
2020,04,13,05,55,5.10
2020,04,13,05,56,5.10
2020,04,13,05,57,5.10
2020,04,13,05,58,5.00
2020,04,13,05,59,5.00
2020,04,13,06,00,4.90
2020,04,13,06,01,4.90
2020,04,13,06,02,4.80
2020,04,13,06,03,4.70
2020,04,13,06,04,4.70
2020,04,13,06,05,4.60
2020,04,13,06,06,4.60
2020,04,13,06,07,4.50
2020,04,13,06,08,4.50
2020,04,13,06,09,4.50
2020,04,13,06,10,4.50
2020,04,13,06,11,4.50
2020,04,13,06,12,4.40
2020,04,13,06,13,4.40
2020,04,13,06,14,4.30
2020,04,13,06,15,4.30
2020,04,13,06,16,4.20
2020,04,13,06,17,4.20
2020,04,13,06,18,4.10
2020,04,13,06,19,4.00
2020,04,13,06,20,4.00
2020,04,13,06,21,3.90
2020,04,13,06,22,4.00
2020,04,13,06,23,3.90
2020,04,13,06,24,3.90
2020,04,13,06,25,3.90
2020,04,13,06,26,3.80
2020,04,13,06,27,3.80
2020,04,13,06,28,3.70
2020,04,13,06,29,3.60
2020,04,13,06,30,3.50
2020,04,13,06,31,3.50
2020,04,13,06,32,3.40
2020,04,13,06,33,3.30
2020,04,13,06,34,3.30
2020,04,13,06,35,3.20
2020,04,13,06,36,3.20
2020,04,13,06,37,3.10
2020,04,13,06,38,3.10
2020,04,13,06,39,3.00
2020,04,13,06,40,3.00
2020,04,13,06,41,2.90
2020,04,13,06,42,2.90
2020,04,13,06,43,2.90
2020,04,13,06,44,2.80
2020,04,13,06,45,2.80
2020,04,13,06,46,2.80
2020,04,13,06,47,2.80
2020,04,13,06,48,2.80
2020,04,13,06,49,2.80
2020,04,13,06,50,2.80
2020,04,13,06,51,2.80
2020,04,13,06,52,2.80
2020,04,13,06,53,2.90
2020,04,13,06,54,2.90
2020,04,13,06,55,3.00
2020,04,13,06,56,3.00
2020,04,13,06,57,3.00
2020,04,13,06,58,3.10
2020,04,13,06,59,3.10
2020,04,13,07,00,3.10
2020,04,13,07,01,3.10
2020,04,13,07,02,3.10
2020,04,13,07,03,3.20
2020,04,13,07,04,3.20
2020,04,13,07,05,3.20
2020,04,13,07,06,3.30
2020,04,13,07,07,3.30
2020,04,13,07,08,3.30
2020,04,13,07,09,3.40
2020,04,13,07,10,3.40
2020,04,13,07,11,3.40
2020,04,13,07,12,3.50
2020,04,13,07,13,3.50
2020,04,13,07,14,3.50
2020,04,13,07,15,3.50
2020,04,13,07,16,3.60
2020,04,13,07,17,3.60
2020,04,13,07,18,3.60
2020,04,13,07,19,3.70
2020,04,13,07,20,3.80
2020,04,13,07,21,3.80
2020,04,13,07,22,3.80
2020,04,13,07,23,3.80
2020,04,13,07,24,3.90
2020,04,13,07,25,3.90
2020,04,13,07,26,3.90
2020,04,13,07,27,3.90
2020,04,13,07,28,4.00
2020,04,13,07,29,4.00
2020,04,13,07,30,4.00
2020,04,13,07,31,4.00
2020,04,13,07,32,4.10
2020,04,13,07,33,4.10
2020,04,13,07,34,4.10
2020,04,13,07,35,4.20
2020,04,13,07,36,4.20
2020,04,13,07,37,4.30
2020,04,13,07,38,4.30
2020,04,13,07,39,4.40
2020,04,13,07,40,4.40
2020,04,13,07,41,4.50
2020,04,13,07,42,4.50
2020,04,13,07,43,4.60
2020,04,13,07,44,4.60
2020,04,13,07,45,4.70
2020,04,13,07,46,4.70
2020,04,13,07,47,4.70
2020,04,13,07,48,4.80
2020,04,13,07,49,4.80
2020,04,13,07,50,4.90
2020,04,13,07,51,4.90
2020,04,13,07,52,5.00
2020,04,13,07,53,5.10
2020,04,13,07,54,5.10
2020,04,13,07,55,5.20
2020,04,13,07,56,5.20
2020,04,13,07,57,5.30
2020,04,13,07,58,5.40
2020,04,13,07,59,5.40
2020,04,13,08,00,5.60
2020,04,13,08,01,5.60
2020,04,13,08,02,5.70
2020,04,13,08,03,5.80
2020,04,13,08,04,5.90
2020,04,13,08,05,5.90
2020,04,13,08,06,6.00
2020,04,13,08,07,6.10
2020,04,13,08,08,6.20
2020,04,13,08,09,6.30
2020,04,13,08,10,6.40
2020,04,13,08,11,6.50
2020,04,13,08,12,6.60
2020,04,13,08,13,6.60
2020,04,13,08,14,6.70
2020,04,13,08,15,6.70
2020,04,13,08,16,6.80
2020,04,13,08,17,6.90
2020,04,13,08,18,6.90
2020,04,13,08,19,7.00
2020,04,13,08,20,7.10
2020,04,13,08,21,7.10
2020,04,13,08,22,7.20
2020,04,13,08,23,7.20
2020,04,13,08,24,7.20
2020,04,13,08,25,7.30
2020,04,13,08,26,7.30
2020,04,13,08,27,7.40
2020,04,13,08,28,7.40
2020,04,13,08,29,7.50
2020,04,13,08,30,7.50
2020,04,13,08,31,7.60
2020,04,13,08,32,7.60
2020,04,13,08,33,7.70
2020,04,13,08,34,7.80
2020,04,13,08,35,7.90
2020,04,13,08,36,8.00
2020,04,13,08,37,8.00
2020,04,13,08,38,8.10
2020,04,13,08,39,8.10
2020,04,13,08,40,8.20
2020,04,13,08,41,8.20
2020,04,13,08,42,8.20
2020,04,13,08,43,8.30
2020,04,13,08,44,8.30
2020,04,13,08,45,8.30
2020,04,13,08,46,8.30
2020,04,13,08,47,8.40
2020,04,13,08,48,8.40
2020,04,13,08,49,8.40
2020,04,13,08,50,8.40
2020,04,13,08,51,8.40
2020,04,13,08,52,8.40
2020,04,13,08,53,8.50
2020,04,13,08,54,8.50
2020,04,13,08,55,8.50
2020,04,13,08,56,8.60
2020,04,13,08,57,8.60
2020,04,13,08,58,8.60
2020,04,13,08,59,8.60
2020,04,13,09,00,8.60
2020,04,13,09,01,8.70
2020,04,13,09,02,8.70
2020,04,13,09,03,8.70
2020,04,13,09,04,8.80
2020,04,13,09,05,8.80
2020,04,13,09,06,8.90
2020,04,13,09,07,8.90
2020,04,13,09,08,9.00
2020,04,13,09,09,9.00
2020,04,13,09,10,8.90
2020,04,13,09,11,8.90
2020,04,13,09,12,8.80
2020,04,13,09,13,8.80
2020,04,13,09,14,8.80
2020,04,13,09,15,8.80
2020,04,13,09,16,8.80
2020,04,13,09,17,8.80
2020,04,13,09,18,8.80
2020,04,13,09,19,8.80
2020,04,13,09,20,8.90
2020,04,13,09,21,8.90
2020,04,13,09,22,8.90
2020,04,13,09,23,8.80
2020,04,13,09,24,8.80
2020,04,13,09,25,8.80
2020,04,13,09,26,8.80
2020,04,13,09,27,8.80
2020,04,13,09,28,8.80
2020,04,13,09,29,8.80
2020,04,13,09,30,8.90
2020,04,13,09,31,8.90
2020,04,13,09,32,8.90
2020,04,13,09,33,8.90
2020,04,13,09,34,9.00
2020,04,13,09,35,9.10
2020,04,13,09,36,9.10
2020,04,13,09,37,9.20
2020,04,13,09,38,9.20
2020,04,13,09,39,9.20
2020,04,13,09,40,9.20
2020,04,13,09,41,9.20
2020,04,13,09,42,9.20
2020,04,13,09,43,9.20
2020,04,13,09,44,9.20
2020,04,13,09,45,9.20
2020,04,13,09,46,9.30
2020,04,13,09,47,9.30
2020,04,13,09,48,9.40
2020,04,13,09,49,9.40
2020,04,13,09,50,9.50
2020,04,13,09,51,9.50
2020,04,13,09,52,9.50
2020,04,13,09,53,9.60
2020,04,13,09,54,9.70
2020,04,13,09,55,9.70
2020,04,13,09,56,9.80
2020,04,13,09,57,9.80
2020,04,13,09,58,9.90
2020,04,13,09,59,10.00
2020,04,13,10,00,10.00
2020,04,13,10,01,10.10
2020,04,13,10,02,10.10
2020,04,13,10,03,10.20
2020,04,13,10,04,10.20
2020,04,13,10,05,10.20
2020,04,13,10,06,10.20
2020,04,13,10,07,10.20
2020,04,13,10,08,10.20
2020,04,13,10,09,10.20
2020,04,13,10,10,10.20
2020,04,13,10,11,10.20
2020,04,13,10,12,10.20
2020,04,13,10,13,10.30
2020,04,13,10,14,10.30
2020,04,13,10,15,10.40
2020,04,13,10,16,10.40
2020,04,13,10,17,10.40
2020,04,13,10,18,10.40
2020,04,13,10,19,10.30
2020,04,13,10,20,10.20
2020,04,13,10,21,10.20
2020,04,13,10,22,10.10
2020,04,13,10,23,10.00
2020,04,13,10,24,9.90
2020,04,13,10,25,9.80
2020,04,13,10,26,9.80
2020,04,13,10,27,9.80
2020,04,13,10,28,9.80
2020,04,13,10,29,9.80
2020,04,13,10,30,9.80
2020,04,13,10,31,9.90
2020,04,13,10,32,9.90
2020,04,13,10,33,10.00
2020,04,13,10,34,10.10
2020,04,13,10,35,10.10
2020,04,13,10,36,10.20
2020,04,13,10,37,10.20
2020,04,13,10,38,10.20
2020,04,13,10,39,10.30
2020,04,13,10,40,10.40
2020,04,13,10,41,10.40
2020,04,13,10,42,10.40
2020,04,13,10,43,10.40
2020,04,13,10,44,10.30
2020,04,13,10,45,10.30
2020,04,13,10,46,10.20
2020,04,13,10,47,10.20
2020,04,13,10,48,10.10
2020,04,13,10,49,10.10
2020,04,13,10,50,10.10
2020,04,13,10,51,10.10
2020,04,13,10,52,10.10
2020,04,13,10,53,10.10
2020,04,13,10,54,10.10
2020,04,13,10,55,10.00
2020,04,13,10,56,10.00
2020,04,13,10,57,10.00
2020,04,13,10,58,10.00
2020,04,13,10,59,9.90
2020,04,13,11,00,9.90
2020,04,13,11,01,9.90
2020,04,13,11,02,9.80
2020,04,13,11,03,9.80
2020,04,13,11,04,9.90
2020,04,13,11,05,9.90
2020,04,13,11,06,10.00
2020,04,13,11,07,10.00
2020,04,13,11,08,10.10
2020,04,13,11,09,10.10
2020,04,13,11,10,10.10
2020,04,13,11,11,10.20
2020,04,13,11,12,10.30
2020,04,13,11,13,10.40
2020,04,13,11,14,10.40
2020,04,13,11,15,10.50
2020,04,13,11,16,10.60
2020,04,13,11,17,10.60
2020,04,13,11,18,10.60
2020,04,13,11,19,10.60
2020,04,13,11,20,10.60
2020,04,13,11,21,10.60
2020,04,13,11,22,10.60
2020,04,13,11,23,10.60
2020,04,13,11,24,10.60
2020,04,13,11,25,10.60
2020,04,13,11,26,10.60
2020,04,13,11,27,10.60
2020,04,13,11,28,10.60
2020,04,13,11,29,10.60
2020,04,13,11,30,10.60
2020,04,13,11,31,10.60
2020,04,13,11,32,10.70
2020,04,13,11,33,10.70
2020,04,13,11,34,10.70
2020,04,13,11,35,10.70
2020,04,13,11,36,10.70
2020,04,13,11,37,10.70
2020,04,13,11,38,10.70
2020,04,13,11,39,10.70
2020,04,13,11,40,10.70
2020,04,13,11,41,10.80
2020,04,13,11,42,10.80
2020,04,13,11,43,10.80
2020,04,13,11,44,10.90
2020,04,13,11,45,10.90
2020,04,13,11,46,10.90
2020,04,13,11,47,10.90
2020,04,13,11,48,10.90
2020,04,13,11,49,10.90
2020,04,13,11,50,10.90
2020,04,13,11,51,10.90
2020,04,13,11,52,10.80
2020,04,13,11,53,10.80
2020,04,13,11,54,10.80
2020,04,13,11,55,10.80
2020,04,13,11,56,10.80
2020,04,13,11,57,10.80
2020,04,13,11,58,10.80
2020,04,13,11,59,10.80
2020,04,13,12,00,10.80
2020,04,13,12,01,10.90
2020,04,13,12,02,10.90
2020,04,13,12,03,10.90
2020,04,13,12,04,10.90
2020,04,13,12,05,10.90
2020,04,13,12,06,10.90
2020,04,13,12,07,10.90
2020,04,13,12,08,10.90
2020,04,13,12,09,10.90
2020,04,13,12,10,11.00
2020,04,13,12,11,11.00
2020,04,13,12,12,11.00
2020,04,13,12,13,11.00
2020,04,13,12,14,11.00
2020,04,13,12,15,11.00
2020,04,13,12,16,11.00
2020,04,13,12,17,10.90
2020,04,13,12,18,10.90
2020,04,13,12,19,10.90
2020,04,13,12,20,10.90
2020,04,13,12,21,10.90
2020,04,13,12,22,10.90
2020,04,13,12,23,11.00
2020,04,13,12,24,11.10
2020,04,13,12,25,11.10
2020,04,13,12,26,11.20
2020,04,13,12,27,11.30
2020,04,13,12,28,11.30
2020,04,13,12,29,11.40
2020,04,13,12,30,11.30
2020,04,13,12,31,11.30
2020,04,13,12,32,11.30
2020,04,13,12,33,11.30
2020,04,13,12,34,11.30
2020,04,13,12,35,11.30
2020,04,13,12,36,11.30
2020,04,13,12,37,11.30
2020,04,13,12,38,11.30
2020,04,13,12,39,11.40
2020,04,13,12,40,11.40
2020,04,13,12,41,11.40
2020,04,13,12,42,11.50
2020,04,13,12,43,11.40
2020,04,13,12,44,11.40
2020,04,13,12,45,11.40
2020,04,13,12,46,11.50
2020,04,13,12,47,11.60
2020,04,13,12,48,11.60
2020,04,13,12,49,11.50
2020,04,13,12,50,11.50
2020,04,13,12,51,11.40
2020,04,13,12,52,11.40
2020,04,13,12,53,11.30
2020,04,13,12,54,11.20
2020,04,13,12,55,11.10
2020,04,13,12,56,11.10
2020,04,13,12,57,11.10
2020,04,13,12,58,11.00
2020,04,13,12,59,11.00
2020,04,13,13,00,11.00
2020,04,13,13,01,11.00
2020,04,13,13,02,10.90
2020,04,13,13,03,10.90
2020,04,13,13,04,10.90
2020,04,13,13,05,10.90
2020,04,13,13,06,11.00
2020,04,13,13,07,11.00
2020,04,13,13,08,11.00
2020,04,13,13,09,11.00
2020,04,13,13,10,11.00
2020,04,13,13,11,11.00
2020,04,13,13,12,11.00
2020,04,13,13,13,11.10
2020,04,13,13,14,11.20
2020,04,13,13,15,11.30
2020,04,13,13,16,11.40
2020,04,13,13,17,11.40
2020,04,13,13,18,11.30
2020,04,13,13,19,11.30
2020,04,13,13,20,11.20
2020,04,13,13,21,11.20
2020,04,13,13,22,11.10
2020,04,13,13,23,11.00
2020,04,13,13,24,10.90
2020,04,13,13,25,10.80
2020,04,13,13,26,10.80
2020,04,13,13,27,10.80
2020,04,13,13,28,10.80
2020,04,13,13,29,10.90
2020,04,13,13,30,10.90
2020,04,13,13,31,10.80
2020,04,13,13,32,10.80
2020,04,13,13,33,10.80
2020,04,13,13,34,10.70
2020,04,13,13,35,10.70
2020,04,13,13,36,10.70
2020,04,13,13,37,10.70
2020,04,13,13,38,10.80
2020,04,13,13,39,10.90
2020,04,13,13,40,10.90
2020,04,13,13,41,11.00
2020,04,13,13,42,11.00
2020,04,13,13,43,11.00
2020,04,13,13,44,11.10
2020,04,13,13,45,11.10
2020,04,13,13,46,11.10
2020,04,13,13,47,11.10
2020,04,13,13,48,11.00
2020,04,13,13,49,11.00
2020,04,13,13,50,11.10
2020,04,13,13,51,11.10
2020,04,13,13,52,11.30
2020,04,13,13,53,11.40
2020,04,13,13,54,11.50
2020,04,13,13,55,11.60
2020,04,13,13,56,11.70
2020,04,13,13,57,11.70
2020,04,13,13,58,11.70
2020,04,13,13,59,11.60
2020,04,13,14,00,11.60
2020,04,13,14,01,11.60
2020,04,13,14,02,11.60
2020,04,13,14,03,11.60
2020,04,13,14,04,11.60
2020,04,13,14,05,11.60
2020,04,13,14,06,11.60
2020,04,13,14,07,11.60
2020,04,13,14,08,11.60
2020,04,13,14,09,11.50
2020,04,13,14,10,11.50
2020,04,13,14,11,11.50
2020,04,13,14,12,11.50
2020,04,13,14,13,11.50
2020,04,13,14,14,11.60
2020,04,13,14,15,11.70
2020,04,13,14,16,11.70
2020,04,13,14,17,11.70
2020,04,13,14,18,11.70
2020,04,13,14,19,11.60
2020,04,13,14,20,11.50
2020,04,13,14,21,11.50
2020,04,13,14,22,11.50
2020,04,13,14,23,11.40
2020,04,13,14,24,11.40
2020,04,13,14,25,11.40
2020,04,13,14,26,11.40
2020,04,13,14,27,11.40
2020,04,13,14,28,11.40
2020,04,13,14,29,11.50
2020,04,13,14,30,11.40
2020,04,13,14,31,11.30
2020,04,13,14,32,11.30
2020,04,13,14,33,11.40
2020,04,13,14,34,11.40
2020,04,13,14,35,11.40
2020,04,13,14,36,11.30
2020,04,13,14,37,11.30
2020,04,13,14,38,11.30
2020,04,13,14,39,11.30
2020,04,13,14,40,11.40
2020,04,13,14,41,11.50
2020,04,13,14,42,11.60
2020,04,13,14,43,11.50
2020,04,13,14,44,11.60
2020,04,13,14,45,11.60
2020,04,13,14,46,11.70
2020,04,13,14,47,11.70
2020,04,13,14,48,11.80
2020,04,13,14,49,11.80
2020,04,13,14,50,11.90
2020,04,13,14,51,11.90
2020,04,13,14,52,12.00
2020,04,13,14,53,12.00
2020,04,13,14,54,12.00
2020,04,13,14,55,12.10
2020,04,13,14,56,12.10
2020,04,13,14,57,12.20
2020,04,13,14,58,12.40
2020,04,13,14,59,12.50
2020,04,13,15,00,12.60
2020,04,13,15,01,12.60
2020,04,13,15,02,12.60
2020,04,13,15,03,12.60
2020,04,13,15,04,12.60
2020,04,13,15,05,12.60
2020,04,13,15,06,12.50
2020,04,13,15,07,12.50
2020,04,13,15,08,12.50
2020,04,13,15,09,12.50
2020,04,13,15,10,12.50
2020,04,13,15,11,12.50
2020,04,13,15,12,12.50
2020,04,13,15,13,12.50
2020,04,13,15,14,12.40
2020,04,13,15,15,12.40
2020,04,13,15,16,12.40
2020,04,13,15,17,12.30
2020,04,13,15,18,12.30
2020,04,13,15,19,12.40
2020,04,13,15,20,12.50
2020,04,13,15,21,12.60
2020,04,13,15,22,12.60
2020,04,13,15,23,12.60
2020,04,13,15,24,12.60
2020,04,13,15,25,12.50
2020,04,13,15,26,12.50
2020,04,13,15,27,12.50
2020,04,13,15,28,12.40
2020,04,13,15,29,12.40
2020,04,13,15,30,12.40
2020,04,13,15,31,12.40
2020,04,13,15,32,12.40
2020,04,13,15,33,12.50
2020,04,13,15,34,12.60
2020,04,13,15,35,12.70
2020,04,13,15,36,12.70
2020,04,13,15,37,12.80
2020,04,13,15,38,12.90
2020,04,13,15,39,12.90
2020,04,13,15,40,12.90
2020,04,13,15,41,13.00
2020,04,13,15,42,13.10
2020,04,13,15,43,13.10
2020,04,13,15,44,13.10
2020,04,13,15,45,13.10
2020,04,13,15,46,13.00
2020,04,13,15,47,13.00
2020,04,13,15,48,13.00
2020,04,13,15,49,13.10
2020,04,13,15,50,13.10
2020,04,13,15,51,13.10
2020,04,13,15,52,13.10
2020,04,13,15,53,13.10
2020,04,13,15,54,13.10
2020,04,13,15,55,13.10
2020,04,13,15,56,13.10
2020,04,13,15,57,13.10
2020,04,13,15,58,13.10
2020,04,13,15,59,13.10
2020,04,13,16,00,13.10
2020,04,13,16,01,13.10
2020,04,13,16,02,13.10
2020,04,13,16,03,13.10
2020,04,13,16,04,13.20
2020,04,13,16,05,13.20
2020,04,13,16,06,13.30
2020,04,13,16,07,13.30
2020,04,13,16,08,13.30
2020,04,13,16,09,13.30
2020,04,13,16,10,13.30
2020,04,13,16,11,13.20
2020,04,13,16,12,13.10
2020,04,13,16,13,13.10
2020,04,13,16,14,13.00
2020,04,13,16,15,13.00
2020,04,13,16,16,13.00
2020,04,13,16,17,13.00
2020,04,13,16,18,13.00
2020,04,13,16,19,13.00
2020,04,13,16,20,13.10
2020,04,13,16,21,13.10
2020,04,13,16,22,13.10
2020,04,13,16,23,13.10
2020,04,13,16,24,13.10
2020,04,13,16,25,13.20
2020,04,13,16,26,13.20
2020,04,13,16,27,13.30
2020,04,13,16,28,13.30
2020,04,13,16,29,13.40
2020,04,13,16,30,13.40
2020,04,13,16,31,13.40
2020,04,13,16,32,13.40
2020,04,13,16,33,13.40
2020,04,13,16,34,13.40
2020,04,13,16,35,13.40
2020,04,13,16,36,13.30
2020,04,13,16,37,13.30
2020,04,13,16,38,13.20
2020,04,13,16,39,13.20
2020,04,13,16,40,13.20
2020,04,13,16,41,13.20
2020,04,13,16,42,13.20
2020,04,13,16,43,13.20
2020,04,13,16,44,13.10
2020,04,13,16,45,13.10
2020,04,13,16,46,13.00
2020,04,13,16,47,13.00
2020,04,13,16,48,12.90
2020,04,13,16,49,12.80
2020,04,13,16,50,12.80
2020,04,13,16,51,12.80
2020,04,13,16,52,12.70
2020,04,13,16,53,12.70
2020,04,13,16,54,12.70
2020,04,13,16,55,12.70
2020,04,13,16,56,12.70
2020,04,13,16,57,12.80
2020,04,13,16,58,12.80
2020,04,13,16,59,12.80
2020,04,13,17,00,12.80
2020,04,13,17,01,12.90
2020,04,13,17,02,12.90
2020,04,13,17,03,12.90
2020,04,13,17,04,12.90
2020,04,13,17,05,12.90
2020,04,13,17,06,12.90
2020,04,13,17,07,12.90
2020,04,13,17,08,12.90
2020,04,13,17,09,13.00
2020,04,13,17,10,13.00
2020,04,13,17,11,13.00
2020,04,13,17,12,12.90
2020,04,13,17,13,12.90
2020,04,13,17,14,12.90
2020,04,13,17,15,12.90
2020,04,13,17,16,13.00
2020,04,13,17,17,13.00
2020,04,13,17,18,13.00
2020,04,13,17,19,13.10
2020,04,13,17,20,13.10
2020,04,13,17,21,13.10
2020,04,13,17,22,13.10
2020,04,13,17,23,13.10
2020,04,13,17,24,13.10
2020,04,13,17,25,13.10
2020,04,13,17,26,13.10
2020,04,13,17,27,13.10
2020,04,13,17,28,13.10
2020,04,13,17,29,13.10
2020,04,13,17,30,13.10
2020,04,13,17,31,13.10
2020,04,13,17,32,13.10
2020,04,13,17,33,13.10
2020,04,13,17,34,13.10
2020,04,13,17,35,13.10
2020,04,13,17,36,13.10
2020,04,13,17,37,13.10
2020,04,13,17,38,13.10
2020,04,13,17,39,13.20
2020,04,13,17,40,13.20
2020,04,13,17,41,13.20
2020,04,13,17,42,13.30
2020,04,13,17,43,13.30
2020,04,13,17,44,13.30
2020,04,13,17,45,13.40